Regional Weather Roundup
Issued by NWS

Home | Current Version | Previous Version | Graphics & Text | Print | Product List | Glossary On
Versions: 1 2 3 4 5 6 7 8 9 10 11 12 13 14 15 16 17 18 19 20 21 22 23 24 25 26 27 28 29 30 31 32 33 34 35 36 37 38 39 40 41 42 43 44 45 46 47 48 49 50
000
ASUS43 KTOP 291908
RWRKS

WEATHER ROUNDUP FOR KANSAS
NATIONAL WEATHER SERVICE GOODLAND KS
200 PM CDT MON AUG 29 2016

NOTE:  "FAIR" INDICATES FEW OR NO CLOUDS BELOW 12,000 FEET WITH NO
SIGNIFICANT WEATHER AND/OR OBSTRUCTIONS TO VISIBILITY.

KSZ001>006-013>018-027>032-041>047-292000-
NORTHWEST KANSAS

CITY           SKY/WX    TMP DP  RH WIND       PRES   REMARKS
GOODLAND       CLOUDY    72  61  68 S12       30.25F
HAYS           CLOUDY    77  63  61 NW7       30.20F
HILL CITY      LGT RAIN  73  68  84 S6        30.22F
RUSSELL        PTSUNNY   83  68  60 VRB3      30.16F
$$

KSZ061>065-074>080-084>089-292000-
SOUTHWEST KANSAS

CITY           SKY/WX    TMP DP  RH WIND       PRES   REMARKS
DODGE CITY     CLOUDY    78  64  61 SW6       30.21F
ELKHART          N/A     69  62  78 SE8         N/A
GARDEN CITY    LGT RAIN  70  67  90 SE9       30.25R FOG
GREAT BEND     MOSUNNY   84  64  51 SE5       30.15F
LIBERAL        CLOUDY    72  64  78 E5        30.24F
PRATT          CLOUDY    80  67  64 SE5       30.18F
$$

KSZ066>073-081>083-090>101-292000-
SOUTHEAST KANSAS

CITY           SKY/WX    TMP DP  RH WIND       PRES   REMARKS
CHANUTE        CLOUDY    85  74  69 S7        30.15F
COFFEYVILLE    CLOUDY    80  75  84 NW5       30.15F
HUTCHINSON     MOSUNNY   84  71  65 S10       30.15F
MEDICINE LODGE   N/A     83  70  64 SE8       30.14F
NEWTON         SUNNY     86  69  56 S13       30.17F
PARSONS        CLOUDY    81  73  76 CALM      30.16F
WICHITA INTL   CLOUDY    86  69  56 SE12      30.15F
WICHITA JABRA  CLOUDY    84  71  65 SE7       30.16F
WICHITA MCCONL MOSUNNY   85  70  61 SE7       30.15F
WINFIELD       CLOUDY    80  74  81 SE8       30.18S
$$

KSZ007>012-019>026-033>040-048>060-102>105-292000-
NORTHEAST KANSAS

CITY           SKY/WX    TMP DP  RH WIND       PRES   REMARKS
CONCORDIA      CLOUDY    86  70  58 SE6       30.16F
EMPORIA        RAIN      76  70  82 S10G21    30.18F
LAWRENCE       PTSUNNY   89  71  55 E7        30.16F HX  95
MANHATTAN      PTSUNNY   86  71  60 CALM      30.15F
MARYSVILLE     MOSUNNY   86  72  62 SE6       30.16F
OLATHE IND     MOSUNNY   81  70  69 S7        30.19F
OLATHE EXE     MOSUNNY   82  72  71 W6        30.18F
SALINA         LGT RAIN  85  71  63 NE3       30.15F
TOPEKA BILLARD PTSUNNY   86  70  58 E6        30.16F
TOPEKA FORBES  MOSUNNY   88  70  55 SE5       30.17F
$$




USA.gov is the U.S. government's official web portal to all federal, state and local government web resources and services.